User: anonymous   Login
Location: Unspecified
(0.0000°N, 0.0000°E)
Time: 18:53:06
(UTC+00:00)
Language:

Tubsat - Orbit

View from above orbital plane
View from above orbital plane
View from above satellite
View from above satellite

Ground track
Ground track

The orbit data is extracted from the following two-line orbital elements,

1 25757U 99029B   17145.95677763 -.00000015 +00000-0 +77630-5 0  9998
2 25757 098.4145 057.8613 0014785 013.2460 346.9121 14.51359112953241
Epoch (UTC): 25 May 2017 22:57:45
Eccentricity: 0.0014785
inclination: 98.4145°
perigee height: 711 km
apogee height: 732 km
right ascension of ascending node: 57.8613°
argument of perigee: 13.2460°
revolutions per day: 14.51359112
mean anomaly at epoch: 346.9121°
orbit number at epoch: 95324

The dashed part of the orbit path shows where the satellite is in the earth's shadow,  

DLR